Total_Precipitation_Accumulation
0.99 1.02 0.94 1.08 1.15 1.15 1.15 1.15 1.05 0.99 0.97 0.85 0.86 0.89 0.86 0.72 0.72 0.77 0.93 0.90 1.11 1.48 1.57 1.38 1.21 1.04 0.94 0.90 0.99 1.08 1.15 1.12 1.20 1.32 1.30 1.40 1.49 1.49 1.63 1.64 1.74 1.97 2.00
0.88 1.05 1.00 0.99 1.07 1.25 1.31 1.24 1.13 1.15 1.13 0.98 0.98 1.05 0.99 0.89 0.87 0.87 0.97 0.84 0.71 0.90 1.27 1.45 1.43 1.31 1.13 1.05 1.05 1.15 1.29 1.18 1.14 1.21 1.30 1.42 1.54 1.43 1.47 1.58 1.60 1.82 2.00
0.82 0.99 0.95 0.87 0.86 1.03 1.21 1.33 1.35 1.31 1.16 1.07 1.07 1.08 0.99 0.97 0.96 1.05 1.06 0.99 0.79 0.62 0.81 1.10 1.32 1.38 1.33 1.32 1.26 1.24 1.29 1.20 1.20 1.25 1.30 1.34 1.53 1.55 1.50 1.60 1.59 1.72 1.79
0.61 0.81 0.88 0.80 0.81 0.98 1.20 1.38 1.49 1.53 1.39 1.34 1.35 1.25 1.10 1.06 1.04 1.13 1.14 1.14 1.10 0.86 0.74 0.73 0.88 1.09 1.25 1.37 1.44 1.39 1.28 1.17 1.15 1.23 1.21 1.22 1.36 1.42 1.40 1.51 1.61 1.77 1.81
0.53 0.74 0.92 0.97 0.98 1.09 1.21 1.26 1.46 1.55 1.63 1.52 1.40 1.30 1.22 1.20 1.14 1.09 1.23 1.20 1.17 1.10 0.95 0.66 0.58 0.67 0.87 1.15 1.32 1.38 1.41 1.26 1.18 1.18 1.07 1.05 1.16 1.29 1.39 1.32 1.47 1.63 1.77
0.65 0.84 1.08 1.17 1.29 1.31 1.37 1.54 1.82 1.82 1.71 1.67 1.54 1.36 1.21 1.20 1.22 1.27 1.28 1.23 1.26 1.16 1.03 0.86 0.72 0.50 0.55 0.81 1.10 1.28 1.40 1.37 1.30 1.29 1.19 1.06 1.03 1.15 1.26 1.22 1.31 1.43 1.62
0.80 1.02 1.23 1.47 1.60 1.49 1.50 1.71 1.98 2.14 1.97 1.80 1.81 1.72 1.56 1.37 1.32 1.33 1.33 1.35 1.36 1.29 1.19 1.13 1.01 0.84 0.66 0.58 0.67 0.94 1.19 1.36 1.37 1.39 1.43 1.31 1.16 1.12 1.15 1.04 1.01 1.16 1.37
0.91 0.96 1.16 1.37 1.45 1.50 1.54 1.65 1.88 2.22 2.10 1.87 1.98 2.32 2.12 1.87 1.48 1.23 1.37 1.43 1.46 1.39 1.27 1.14 1.11 1.03 0.92 0.85 0.50 0.48 0.71 1.11 1.39 1.36 1.42 1.46 1.41 1.18 1.14 1.02 0.93 0.97 1.10
1.19 1.17 1.20 1.34 1.42 1.56 1.60 1.64 1.71 1.99 2.09 1.97 1.98 2.46 2.36 2.14 1.99 1.54 1.28 1.35 1.45 1.51 1.48 1.37 1.25 1.16 1.05 1.04 0.84 0.47 0.43 0.62 1.08 1.32 1.46 1.56 1.49 1.28 1.17 1.09 1.03 1.01 1.07
1.50 1.48 1.49 1.57 1.53 1.51 1.51 1.54 1.54 1.73 2.04 2.09 2.00 1.91 1.89 1.93 2.21 1.94 1.45 1.31 1.35 1.37 1.47 1.38 1.39 1.37 1.34 1.21 1.04 0.73 0.45 0.45 0.77 1.27 1.61 1.63 1.47 1.30 1.19 1.18 1.09 1.09 1.14
2.09 2.01 1.93 1.79 1.61 1.53 1.56 1.60 1.60 1.69 1.80 1.92 1.90 1.83 1.84 1.77 1.62 1.77 1.73 1.52 1.35 1.25 1.34 1.39 1.42 1.43 1.49 1.44 1.26 0.94 0.63 0.45 0.56 1.00 1.45 1.66 1.68 1.50 1.32 1.24 1.17 1.14 1.07
2.04 1.98 1.85 1.64 1.46 1.40 1.47 1.60 1.63 1.68 1.68 1.74 1.72 1.65 1.66 1.63 1.52 1.65 1.61 1.63 1.62 1.29 1.18 1.22 1.30 1.34 1.34 1.42 1.29 1.32 0.97 0.65 0.53 0.72 1.00 1.32 1.64 1.77 1.65 1.51 1.33 1.23 1.13
1.43 1.46 1.47 1.43 1.37 1.32 1.38 1.57 1.67 1.71 1.70 1.68 1.64 1.57 1.61 1.50 1.55 1.77 1.78 1.70 1.64 1.33 1.16 1.04 1.08 1.17 1.17 1.31 1.37 1.51 1.23 0.94 0.69 0.63 0.72 0.89 1.13 1.50 1.79 1.90 1.85 1.65 1.52
1.24 1.26 1.33 1.34 1.32 1.33 1.35 1.43 1.54 1.66 1.68 1.62 1.60 1.69 1.66 1.49 1.57 1.60 1.62 1.80 1.67 1.44 1.24 0.96 0.89 0.92 1.03 1.12 1.30 1.50 1.08 1.00 0.84 0.69 0.63 0.69 0.85 0.99 1.27 1.66 1.97 2.00 1.93
0.94 1.05 1.16 1.22 1.18 1.18 1.23 1.33 1.47 1.52 1.61 1.68 1.68 1.69 1.70 1.62 1.62 1.63 1.71 1.77 1.78 1.57 1.29 1.06 0.91 0.83 0.94 0.99 1.23 1.17 0.97 0.99 0.92 0.80 0.71 0.66 0.73 0.84 1.01 1.16 1.29 1.38 1.49
0.84 0.91 0.88 0.84 0.82 0.87 0.90 1.01 1.18 1.27 1.32 1.40 1.43 1.48 1.53 1.54 1.59 1.60 1.67 1.73 1.70 1.63 1.45 1.22 1.07 1.01 1.06 0.97 1.10 1.01 1.04 1.18 1.00 0.86 0.77 0.71 0.72 0.80 0.87 0.90 0.89 0.82 0.83
0.53 0.61 0.56 0.53 0.58 0.63 0.61 0.69 0.80 0.91 1.01 1.08 1.10 1.15 1.21 1.27 1.36 1.41 1.53 1.60 1.63 1.59 1.38 1.22 1.11 1.11 1.12 1.10 1.11 1.04 1.08 1.10 0.99 0.90 0.78 0.69 0.70 0.74 0.81 0.85 0.83 0.76 0.69
0.23 0.29 0.32 0.33 0.40 0.52 0.55 0.61 0.65 0.67 0.74 0.80 0.85 0.92 0.97 1.02 1.13 1.20 1.29 1.38 1.51 1.55 1.46 1.30 1.19 1.12 1.03 1.04 1.20 1.25 1.24 1.15 1.11 1.17 1.08 0.92 0.83 0.78 0.76 0.81 0.88 0.85 0.76
0.16 0.20 0.23 0.26 0.30 0.40 0.51 0.57 0.59 0.56 0.55 0.53 0.56 0.62 0.71 0.80 0.93 1.01 1.07 1.17 1.33 1.37 1.44 1.33 1.28 1.22 1.08 1.03 1.18 1.20 1.28 1.44 1.32 1.40 1.54 1.34 1.08 0.90 0.81 0.84 0.90 0.90 0.82
0.16 0.15 0.14 0.16 0.24 0.35 0.44 0.52 0.55 0.53 0.49 0.49 0.51 0.52 0.56 0.59 0.67 0.77 0.90 1.10 1.29 1.41 1.45 1.39 1.36 1.33 1.27 1.18 1.24 1.32 1.39 1.49 1.52 1.37 1.41 1.39 1.32 1.19 1.02 0.91 0.95 1.00 0.97
0.12 0.08 0.06 0.08 0.16 0.23 0.27 0.40 0.46 0.46 0.48 0.46 0.47 0.52 0.54 0.51 0.52 0.56 0.57 0.76 0.99 1.23 1.34 1.40 1.41 1.43 1.38 1.34 1.26 1.36 1.43 1.57 1.69 1.67 1.57 1.41 1.37 1.22 1.10 1.02 0.97 1.00 1.06
0.09 0.07 0.06 0.06 0.08 0.09 0.15 0.22 0.31 0.41 0.47 0.50 0.51 0.56 0.55 0.50 0.55 0.53 0.51 0.54 0.65 0.81 0.98 1.11 1.21 1.26 1.31 1.40 1.51 1.52 1.50 1.58 1.66 1.67 1.54 1.55 1.50 1.38 1.22 1.04 1.05 1.06 1.09
0.04 0.04 0.04 0.05 0.05 0.05 0.05 0.09 0.19 0.35 0.48 0.49 0.49 0.63 0.70 0.64 0.62 0.66 0.67 0.61 0.55 0.55 0.70 0.88 1.00 1.05 1.14 1.25 1.49 1.54 1.52 1.55 1.48 1.53 1.40 1.45 1.42 1.30 1.22 1.18 1.19 1.11 1.12
0.02 0.03 0.05 0.08 0.05 0.03 0.03 0.05 0.11 0.25 0.40 0.44 0.45 0.58 0.83 0.86 0.75 0.71 0.75 0.86 0.78 0.62 0.61 0.66 0.81 0.92 0.98 1.15 1.49 1.71 1.65 1.44 1.39 1.46 1.36 1.37 1.32 1.21 1.15 1.14 1.18 1.09 1.07
0.03 0.04 0.04 0.06 0.06 0.05 0.05 0.05 0.09 0.20 0.30 0.34 0.39 0.51 0.67 0.83 0.76 0.72 0.72 0.79 0.83 0.73 0.67 0.68 0.65 0.73 0.85 1.02 1.29 1.56 1.67 1.60 1.44 1.39 1.27 1.19 1.21 1.22 1.25 1.21 1.15 1.14 1.06
0.05 0.05 0.04 0.04 0.04 0.03 0.05 0.06 0.08 0.13 0.18 0.18 0.25 0.41 0.56 0.56 0.52 0.59 0.70 0.81 0.90 0.75 0.65 0.74 0.73 0.75 0.78 0.96 1.28 1.50 1.62 1.60 1.47 1.44 1.34 1.24 1.23 1.26 1.44 1.40 1.23 1.17 1.11